Location: Radomski Observatory
(40.2854°N, 79.5145°W)
Time: 11:32:12
(UTC-05:00)

Amateur Radio Satellites - All Passes

Search period start: 02 March 2015 11:02
Search period end: 03 March 2015 11:02
Location: Radomski Observatory, 40.2854°N, 79.5145°W

Satellite Date Start Highest point End Downlink Frequencies (MHz)
Time Altitude Azimuth
NANOSAT C BR1 02 Mar 11:06:05 11:10:06 38° 262° (W) 11:14:06 145.865
Oscar 11 02 Mar 11:07:06 11:10:18 20° 292° (WNW) 11:13:23 145.826/435.025
CUBEBUG 2 02 Mar 11:09:56 11:13:17 23° 291° (WNW) 11:16:33 437.445
UNISAT 6 02 Mar 11:14:44 11:17:53 18° 268° (W) 11:20:51 437.425
CUSAT 1 02 Mar 11:25:36 11:28:12 65° 262° (W) 11:30:50 437.405
DX 1 02 Mar 11:30:12 11:33:45 24° 292° (WNW) 11:37:13 434.975-435.025
AISAT 02 Mar 11:30:37 11:35:00 56° 287° (WNW) 11:39:20 437.250
CUBEBUG 1 02 Mar 11:35:43 11:40:08 70° 101° (E) 11:44:30 437.445
QB50P1 02 Mar 11:40:16 11:43:08 17° 269° (W) 11:45:50 145.935-145.965
VELOX 1 02 Mar 11:40:28 11:44:44 45° 288° (WNW) 11:48:57 145.980
ISS 02 Mar 11:40:35 11:42:19 13° 348° (NNW) 11:44:01 145.825
QB50P2 02 Mar 11:44:17 11:46:51 15° 269° (W) 11:49:16 145.880/145.840
RS-15 02 Mar 11:48:55 11:52:52 11° 262° (W) 11:55:32 29.354- 29.394
FUNcube-1 02 Mar 11:51:50 11:53:49 13° 294° (WNW) 11:55:37 145.935
ZACube-1 02 Mar 11:53:03 11:54:53 12° 295° (WNW) 11:56:32 437.345
BUGSAT 1 02 Mar 11:53:07 11:55:53 16° 269° (W) 11:58:29 437.445
ESTCUBE 1 02 Mar 11:54:02 11:58:36 68° 285° (WNW) 12:03:07 437.505/2401.250
Oscar 19 02 Mar 11:58:42 12:02:42 24° 66° (ENE) 12:06:48 437.125/150
HUMSAT D 02 Mar 11:58:51 12:01:48 19° 292° (WNW) 12:04:38 437.325/437.525
50 SAT 02 Mar 12:00:20 12:03:31 23° 290° (WNW) 12:06:38 437.505
UKube-1 02 Mar 12:01:42 12:03:42 13° 296° (WNW) 12:05:30 .
DUCHIFAT 1 02 Mar 12:01:57 12:02:35 10° 272° (W) 12:02:55 145.980
SPROUT 02 Mar 12:09:53 12:13:56 40° 97° (E) 12:17:59 437.525
TISAT 1 02 Mar 12:15:26 12:19:27 41° 98° (E) 12:23:26 437.305
SO-50 02 Mar 12:24:25 12:27:02 14° 251° (WSW) 12:29:25 436.795
Gurwin Techsat 1B 02 Mar 13:05:04 13:09:19 26° 67° (ENE) 13:13:43 435.225
CUBEBUG 1 02 Mar 13:14:23 13:16:00 12° 297° (WNW) 13:17:23 437.445
SWISSCUBE 02 Mar 13:17:41 13:21:59 33° 96° (E) 13:26:20 437.505
ISS 02 Mar 13:18:23 13:19:48 12° 8° (N) 13:21:15 145.825
BEESAT 02 Mar 13:26:18 13:30:44 37° 97° (E) 13:35:11 436.000
ITAMSAT 1 02 Mar 13:34:01 13:39:09 64° 74° (ENE) 13:44:21 435.822/435.867
AO-7 02 Mar 13:36:03 13:41:22 20° 53° (NE) 13:47:01 29.400- 29.500
Oscar 19 02 Mar 13:37:00 13:41:51 41° 262° (W) 13:46:41 437.125/150
SPROUT 02 Mar 13:46:50 13:49:46 18° 293° (WNW) 13:52:34 437.525
TISAT 1 02 Mar 13:52:11 13:54:59 17° 293° (WNW) 13:57:37 437.305
ITUPSAT 1 02 Mar 13:53:11 13:58:01 69° 102° (ESE) 14:02:49 437.325
JAS-2 02 Mar 14:27:52 14:30:52 15° 58° (ENE) 14:34:18 435.910
Gurwin Techsat 1B 02 Mar 14:44:08 14:49:08 40° 263° (W) 14:54:07 435.225
HORYU 2 02 Mar 14:44:14 14:48:35 59° 74° (ENE) 14:52:58 437.375
ISS 02 Mar 14:54:05 14:57:01 31° 27° (NNE) 14:59:58 145.825
SWISSCUBE 02 Mar 14:55:44 14:59:46 26° 292° (WNW) 15:03:41 437.505
BEESAT 02 Mar 15:04:34 15:08:25 24° 293° (WNW) 15:12:09 436.000
YUBILEINY 02 Mar 15:06:24 15:13:00 26° 83° (E) 15:19:57 435.215
ITAMSAT 1 02 Mar 15:16:06 15:19:12 15° 271° (W) 15:22:03 435.822/435.867
KKS-1 02 Mar 15:19:56 15:24:22 71° 285° (WNW) 15:28:47 437.445
AO-7 02 Mar 15:24:46 15:33:08 84° 71° (ENE) 15:41:31 29.400- 29.500
STARS 02 Mar 15:26:58 15:31:23 88° 103° (ESE) 15:35:45 437.465
ITUPSAT 1 02 Mar 15:32:54 15:35:24 14° 297° (WNW) 15:37:41 437.325
M-CUBED/EXP-1 PRIME 02 Mar 16:09:34 16:13:00 23° 100° (E) 16:16:42 437.505
JAS-2 02 Mar 16:09:42 16:15:08 79° 258° (WSW) 16:21:15 435.910
BEESAT 3 02 Mar 16:11:27 16:12:19 11° 109° (ESE) 16:13:24 437.485
AUBIESAT-1 02 Mar 16:11:50 16:15:11 22° 100° (E) 16:18:47 437.475
HORYU 2 02 Mar 16:23:49 16:25:43 12° 271° (W) 16:27:22 437.375
MOZHAYETS 4 02 Mar 16:29:34 16:33:39 31° 95° (E) 16:37:48
ISS 02 Mar 16:30:31 16:33:26 30° 224° (SW) 16:36:20 145.825
BEESAT 2 02 Mar 16:34:47 16:37:28 17° 111° (ESE) 16:40:18 435.950
Cubesat XI-IV 02 Mar 16:59:29 17:04:12 33° 68° (ENE) 17:09:00 437.490
YUBILEINY 02 Mar 17:00:31 17:09:11 66° 281° (WNW) 17:17:57 435.215
CUTE-I 02 Mar 17:08:18 17:13:12 39° 70° (ENE) 17:18:11 437.470
AO-7 02 Mar 17:21:08 17:27:01 20° 271° (W) 17:32:26 29.400- 29.500
AIST 1 02 Mar 17:28:04 17:30:54 17° 70° (ENE) 17:33:51
VERMONT LUNAR 02 Mar 17:35:43 17:38:52 32° 156° (SSE) 17:42:02 437.305
PHONESAT 2.4 02 Mar 17:38:47 17:41:27 19° 150° (SSE) 17:44:10 2401.200-2431.200
PRISM 02 Mar 17:42:11 17:43:44 12° 89° (E) 17:45:31 437.425
M-CUBED/EXP-1 PRIME 02 Mar 17:44:07 17:47:57 33° 293° (WNW) 17:51:59 437.505
BEESAT 3 02 Mar 17:45:50 17:49:54 67° 303° (WNW) 17:54:03 437.485
AUBIESAT-1 02 Mar 17:46:12 17:50:05 35° 293° (WNW) 17:54:11 437.475
MOZHAYETS 4 02 Mar 18:06:56 18:10:48 26° 291° (WNW) 18:14:34
AIST 2 02 Mar 18:07:33 18:11:45 66° 119° (ESE) 18:16:02 435.215
BEESAT 2 02 Mar 18:11:25 18:15:22 42° 307° (NW) 18:19:21 435.950
CUBESAT XI-V 02 Mar 18:27:49 18:32:17 42° 97° (E) 18:36:44 437.345
STRAND 1 02 Mar 18:30:12 18:34:30 27° 94° (E) 18:38:50 437.568
Cubesat XI-IV 02 Mar 18:39:30 18:44:18 32° 264° (W) 18:49:03 437.490
CUTE-I 02 Mar 18:48:53 18:53:24 27° 266° (W) 18:57:52 437.470
HO-68 02 Mar 18:50:33 18:55:55 24° 60° (ENE) 19:01:29 435.675
O/OREOS (USA 219) 02 Mar 19:01:28 19:05:56 48° 64° (ENE) 19:10:21 437.305
YUBILEINY 02 Mar 19:04:39 19:08:16 12° 306° (NW) 19:11:15 435.215
AIST 1 02 Mar 19:04:40 19:08:49 40° 268° (W) 19:12:55
VERMONT LUNAR 02 Mar 19:13:05 19:16:35 85° 175° (S) 19:20:06 437.305
PRISM 02 Mar 19:15:30 19:19:39 55° 287° (WNW) 19:23:46 437.425
PHONESAT 2.4 02 Mar 19:15:57 19:19:33 64° 165° (SSE) 19:23:10 2401.200-2431.200
BRITE-PL 02 Mar 19:19:37 19:24:44 37° 71° (ENE) 19:29:42 437.365/2234.400
GOMX 1 02 Mar 19:25:37 19:30:06 28° 69° (ENE) 19:34:30 467.674
SEEDS 02 Mar 19:28:07 19:30:53 18° 67° (ENE) 19:33:46 437.485
CANX-2 02 Mar 19:30:31 19:33:53 24° 70° (ENE) 19:37:22 2200.000
AIST 2 02 Mar 19:48:09 19:50:52 16° 318° (NW) 19:53:27 435.215
CUTE 1.7 + AOD 2 02 Mar 19:48:38 19:52:27 35° 72° (ENE) 19:56:19 437.475
DOVE 4 02 Mar 20:00:28 20:05:15 41° 72° (ENE) 20:09:53 437.250
CUBESAT XI-V 02 Mar 20:05:59 20:09:29 20° 293° (WNW) 20:12:50 437.345
DELFI C3 02 Mar 20:07:44 20:09:26 13° 66° (ENE) 20:11:19 145.870
STRAND 1 02 Mar 20:09:05 20:13:46 36° 291° (WNW) 20:18:24 437.568
CINEMA 3 02 Mar 20:09:50 20:13:47 27° 70° (ENE) 20:17:41 145.822/145.860
Oscar 11 02 Mar 20:25:00 20:28:34 27° 70° (ENE) 20:32:14 145.826/435.025
CUBEBUG 2 02 Mar 20:31:10 20:34:45 24° 70° (ENE) 20:38:20 437.445
AAUSAT CUBESAT 2 02 Mar 20:32:20 20:36:26 67° 76° (ENE) 20:40:34 437.432
COMPASS 1 02 Mar 20:34:51 20:39:00 84° 74° (ENE) 20:43:10 437.405
HO-68 02 Mar 20:36:00 20:43:06 68° 257° (WSW) 20:50:15 435.675
O/OREOS (USA 219) 02 Mar 20:42:06 20:44:59 16° 259° (W) 20:47:40 437.305
DX 1 02 Mar 20:49:12 20:52:47 26° 68° (ENE) 20:56:27 434.975-435.025
VERMONT LUNAR 02 Mar 20:51:03 20:54:32 86° 194° (SSW) 20:58:02 437.305
PCSat 02 Mar 20:52:02 20:57:27 82° 119° (ESE) 21:02:55 145.827
PHONESAT 2.4 02 Mar 20:54:21 20:58:00 85° 358° (N) 21:01:39 2401.200-2431.200
AISAT 02 Mar 20:54:21 20:56:09 13° 64° (ENE) 20:58:09 437.250
BRITE-PL 02 Mar 20:58:17 21:03:15 30° 266° (W) 21:08:00 437.365/2234.400
SEEDS 02 Mar 21:02:33 21:06:28 37° 263° (W) 21:10:22 437.485
GOMX 1 02 Mar 21:03:07 21:08:06 37° 264° (W) 21:12:52 467.674
VELOX 1 02 Mar 21:03:10 21:05:37 15° 65° (ENE) 21:08:15 145.980
CANX-2 02 Mar 21:06:11 21:09:47 27° 265° (W) 21:13:21 2200.000
FUNcube-1 02 Mar 21:09:09 21:13:14 40° 73° (ENE) 21:17:16 145.935
ZACube-1 02 Mar 21:10:21 21:14:28 42° 73° (ENE) 21:18:33 437.345
50 SAT 02 Mar 21:12:40 21:14:57 15° 67° (ENE) 21:17:23 437.505
GONETS M04 02 Mar 21:13:52 21:21:31 38° 87° (E) 21:29:21
HUMSAT D 02 Mar 21:14:27 21:17:48 24° 70° (ENE) 21:21:11 437.325/437.525
UKube-1 02 Mar 21:18:05 21:22:16 49° 73° (ENE) 21:26:30 .
ESTCUBE 1 02 Mar 21:20:16 21:21:14 11° 63° (ENE) 21:22:27 437.505/2401.250
CUTE 1.7 + AOD 2 02 Mar 21:25:31 21:28:32 18° 268° (W) 21:31:26 437.475
UWE-3 02 Mar 21:29:09 21:33:38 85° 77° (ENE) 21:37:59 435.000/436.395/437.385
DOVE 4 02 Mar 21:39:04 21:43:09 23° 267° (W) 21:47:00 437.250
DELFI C3 02 Mar 21:40:19 21:44:15 51° 261° (W) 21:48:12 145.870
RS-15 02 Mar 21:45:28 21:52:45 22° 103° (ESE) 22:00:38 29.354- 29.394
CINEMA 3 02 Mar 21:46:39 21:50:56 30° 264° (W) 21:55:00 145.822/145.860
TIGRISAT 02 Mar 21:55:32 21:57:47 14° 90° (E) 22:00:16 435.000
Oscar 11 02 Mar 22:01:08 22:04:44 25° 266° (W) 22:08:18 145.826/435.025
CUBEBUG 2 02 Mar 22:07:20 22:11:22 30° 264° (W) 22:15:15 437.445
ANTELSAT 02 Mar 22:08:22 22:11:35 21° 93° (E) 22:14:57 437.575/2403.000
DUCHIFAT 1 02 Mar 22:10:14 22:11:06 11° 88° (E) 22:12:14 145.980
DX 1 02 Mar 22:25:07 22:28:57 28° 264° (W) 22:32:45 434.975-435.025
AISAT 02 Mar 22:27:47 22:32:17 67° 259° (W) 22:36:47 437.250
POLYITAN 1 02 Mar 22:28:42 22:31:40 19° 92° (E) 22:34:45 437.675
VERMONT LUNAR 02 Mar 22:29:07 22:32:16 32° 205° (SSW) 22:35:25 437.305
POPSAT HIP 1 02 Mar 22:29:13 22:32:11 19° 93° (E) 22:35:14 437.405
CUBEBUG 1 02 Mar 22:31:15 22:35:35 54° 73° (ENE) 22:39:58 437.445
PHONESAT 2.4 02 Mar 22:32:52 22:36:25 53° 199° (SSW) 22:39:58 2401.200-2431.200
VELOX 1 02 Mar 22:37:24 22:41:48 54° 260° (W) 22:46:13 145.980
PCSat 02 Mar 22:38:00 22:41:37 17° 318° (NW) 22:45:05 145.827
50 SAT 02 Mar 22:45:55 22:49:41 40° 262° (W) 22:53:26 437.505
FUNcube-1 02 Mar 22:46:49 22:49:47 17° 268° (W) 22:52:34 145.935
ZACube-1 02 Mar 22:48:13 22:51:05 16° 269° (W) 22:53:45 437.345
HUMSAT D 02 Mar 22:49:53 22:53:31 27° 265° (W) 22:57:03 437.325/437.525
CUSAT 1 02 Mar 22:51:42 22:55:16 17° 94° (E) 22:58:36 437.405
NANOSAT C BR1 02 Mar 22:51:44 22:55:34 34° 97° (E) 22:59:25 145.865
ESTCUBE 1 02 Mar 22:53:01 22:57:32 79° 258° (WSW) 23:02:06 437.505/2401.250
UKube-1 02 Mar 22:56:19 22:58:46 14° 269° (W) 23:01:03 .
SPROUT 02 Mar 23:03:48 23:07:34 30° 70° (ENE) 23:11:23 437.525
UNISAT 6 02 Mar 23:05:31 23:09:50 88° 287° (WNW) 23:14:12 437.425
TISAT 1 02 Mar 23:07:29 23:11:12 30° 70° (ENE) 23:14:58 437.305
GONETS M04 02 Mar 23:09:59 23:18:16 46° 286° (WNW) 23:26:29
QB50P1 02 Mar 23:24:19 23:28:34 83° 102° (ESE) 23:32:46 145.935-145.965
QB50P2 02 Mar 23:28:11 23:32:27 87° 283° (WNW) 23:36:39 145.880/145.840
TIGRISAT 02 Mar 23:30:46 23:34:52 46° 287° (WNW) 23:39:01 435.000
BUGSAT 1 02 Mar 23:34:18 23:38:30 80° 102° (ESE) 23:42:35 437.445
DUCHIFAT 1 02 Mar 23:43:17 23:47:27 60° 285° (WNW) 23:51:35 145.980
ANTELSAT 02 Mar 23:44:38 23:48:29 32° 289° (WNW) 23:52:20 437.575/2403.000
RS-15 02 Mar 23:52:55 00:03:51 88° 303° (WNW) 00:14:58 29.354- 29.394
DANDE 03 Mar 00:02:07 00:09:00 62° 98° (E) 00:14:13 436.750
POLYITAN 1 03 Mar 00:03:54 00:07:45 34° 289° (WNW) 00:11:33 437.675
POPSAT HIP 1 03 Mar 00:04:21 00:08:13 34° 289° (WNW) 00:12:00 437.405
CUBEBUG 1 03 Mar 00:10:03 00:12:22 13° 271° (W) 00:14:28 437.445
PHONESAT 2.4 03 Mar 00:12:19 00:14:26 15° 213° (SSW) 00:16:30 2401.200-2431.200
SWISSCUBE 03 Mar 00:23:53 00:28:12 36° 70° (ENE) 00:32:36 437.505
NANOSAT C BR1 03 Mar 00:28:07 00:31:15 20° 292° (WNW) 00:34:16 145.865
CUSAT 1 03 Mar 00:31:46 00:38:08 61° 281° (W) 00:42:54 437.405
BEESAT 03 Mar 00:32:22 00:36:47 40° 71° (ENE) 00:41:17 436.000
SPROUT 03 Mar 00:40:10 00:43:41 23° 266° (W) 00:47:08 437.525
TISAT 1 03 Mar 00:43:37 00:47:04 23° 266° (W) 00:50:25 437.305
BEESAT 2 03 Mar 00:54:51 00:56:43 13° 40° (NE) 00:58:45 435.950
SO-50 03 Mar 00:56:55 01:00:36 25° 113° (ESE) 01:04:30 436.795
ITUPSAT 1 03 Mar 00:59:27 01:04:13 75° 74° (ENE) 01:09:02 437.325
YUBILEINY 03 Mar 01:18:17 01:20:48 12° 54° (NE) 01:24:01 435.215
DANDE 03 Mar 01:47:55 01:52:27 19° 288° (WNW) 01:56:04 436.750
ITAMSAT 1 03 Mar 01:48:08 01:52:12 23° 93° (E) 01:56:23 435.822/435.867
Oscar 19 03 Mar 01:48:37 01:53:46 73° 103° (ESE) 01:58:53 437.125/150
SWISSCUBE 03 Mar 02:02:20 02:06:11 23° 267° (W) 02:09:58 437.505
BEESAT 3 03 Mar 02:05:34 02:09:40 62° 55° (NE) 02:13:43 437.485
RS-15 03 Mar 02:08:41 02:18:03 30° 329° (NNW) 02:27:25 29.354- 29.394
BEESAT 03 Mar 02:11:13 02:14:51 21° 268° (W) 02:18:22 436.000
KKS-1 03 Mar 02:17:23 02:21:52 84° 257° (WSW) 02:26:23 437.445
STARS 03 Mar 02:23:16 02:27:41 73° 75° (ENE) 02:32:07 437.465
AIST 2 03 Mar 02:30:05 02:34:05 37° 52° (NE) 02:38:02 435.215
BEESAT 2 03 Mar 02:31:21 02:35:32 82° 239° (WSW) 02:39:37 435.950
SO-50 03 Mar 02:36:40 02:41:00 38° 310° (NW) 02:45:26 436.795
HORYU 2 03 Mar 02:38:18 02:39:49 12° 89° (E) 02:41:35 437.375
ITUPSAT 1 03 Mar 02:41:23 02:42:47 11° 273° (W) 02:43:51 437.325
M-CUBED/EXP-1 PRIME 03 Mar 02:59:20 03:01:54 21° 64° (ENE) 03:04:36 437.505
Gurwin Techsat 1B 03 Mar 03:00:23 03:05:45 85° 103° (ESE) 03:11:04 435.225
AUBIESAT-1 03 Mar 03:01:10 03:03:38 20° 64° (ENE) 03:06:15 437.475
YUBILEINY 03 Mar 03:11:13 03:20:00 63° 78° (ENE) 03:28:44 435.215
JAS-2 03 Mar 03:19:24 03:24:15 19° 87° (E) 03:29:39 435.910
ITAMSAT 1 03 Mar 03:26:59 03:31:54 41° 290° (WNW) 03:36:45 435.822/435.867
AO-7 03 Mar 03:27:47 03:34:34 28° 94° (E) 03:41:32 29.400- 29.500
Oscar 19 03 Mar 03:29:48 03:32:35 14° 298° (WNW) 03:35:08 437.125/150
MOZHAYETS 4 03 Mar 03:31:21 03:35:10 28° 69° (ENE) 03:39:06
BEESAT 3 03 Mar 03:45:46 03:47:18 12° 251° (WSW) 03:48:36 437.485
PCSat 03 Mar 03:59:45 04:01:11 11° 36° (NE) 04:02:50 145.827
AIST 2 03 Mar 04:09:14 04:12:29 21° 248° (WSW) 04:15:35 435.215
HORYU 2 03 Mar 04:12:34 04:16:59 62° 286° (WNW) 04:21:22 437.375
RS-15 03 Mar 04:28:06 04:35:29 19° 4° (N) 04:43:07 29.354- 29.394
M-CUBED/EXP-1 PRIME 03 Mar 04:34:26 04:36:53 19° 261° (W) 04:39:19 437.505
AUBIESAT-1 03 Mar 04:35:57 04:38:31 20° 261° (W) 04:41:05 437.475
Gurwin Techsat 1B 03 Mar 04:42:37 04:45:05 13° 299° (WNW) 04:47:17 435.225
JAS-2 03 Mar 05:02:35 05:10:05 85° 285° (WNW) 05:17:59 435.910
MOZHAYETS 4 03 Mar 05:08:27 05:12:23 28° 266° (W) 05:16:16
YUBILEINY 03 Mar 05:09:05 05:16:16 28° 276° (W) 05:23:09 435.215
Cubesat XI-IV 03 Mar 05:18:57 05:21:08 13° 88° (E) 05:23:39 437.490
AO-7 03 Mar 05:19:46 05:27:56 62° 292° (WNW) 05:36:02 29.400- 29.500
CUTE-I 03 Mar 05:27:09 05:30:10 16° 89° (E) 05:33:25 437.470
CUBESAT XI-V 03 Mar 05:30:44 05:35:03 38° 71° (ENE) 05:39:27 437.345
PCSat 03 Mar 05:40:32 05:45:54 58° 57° (ENE) 05:51:14 145.827
STRAND 1 03 Mar 05:45:29 05:50:09 37° 70° (ENE) 05:54:54 437.568
PRISM 03 Mar 06:05:08 06:09:17 81° 257° (WSW) 06:13:29 437.425
RS-15 03 Mar 06:42:28 06:52:34 36° 37° (NE) 07:03:14 29.354- 29.394
JAS-2 03 Mar 06:49:25 06:54:20 19° 300° (WNW) 06:59:04 435.910
Cubesat XI-IV 03 Mar 06:56:34 07:01:57 76° 286° (WNW) 07:07:18 437.490
CUTE-I 03 Mar 07:05:29 07:10:48 64° 287° (WNW) 07:16:04 437.470
CUBESAT XI-V 03 Mar 07:09:05 07:12:40 21° 268° (W) 07:16:10 437.345
AO-7 03 Mar 07:15:13 07:19:16 14° 312° (NW) 07:22:53 29.400- 29.500
PCSat 03 Mar 07:25:06 07:28:54 19° 253° (WSW) 07:32:30 145.827
GONETS M04 03 Mar 07:25:08 07:30:28 18° 60° (ENE) 07:36:17
STRAND 1 03 Mar 07:25:10 07:29:28 26° 266° (W) 07:33:41 437.568
AIST 1 03 Mar 07:33:09 07:37:29 66° 279° (W) 07:41:51
ISS 03 Mar 07:35:48 07:36:08 10° 129° (SE) 07:36:37 145.825
HO-68 03 Mar 08:05:04 08:10:36 24° 92° (E) 08:16:21 435.675
AAUSAT CUBESAT 2 03 Mar 08:18:29 08:19:38 11° 88° (E) 08:21:03 437.432
COMPASS 1 03 Mar 08:20:35 08:22:45 14° 90° (E) 08:25:07 437.405
Cubesat XI-IV 03 Mar 08:40:17 08:41:16 10° 301° (WNW) 08:41:54 437.490
SEEDS 03 Mar 08:47:25 08:51:18 35° 97° (E) 08:55:12 437.485
CANX-2 03 Mar 08:51:19 08:55:29 51° 100° (E) 08:59:39 2200.000
RS-15 03 Mar 08:54:48 09:06:17 79° 241° (WSW) 09:18:15 29.354- 29.394
TIGRISAT 03 Mar 08:54:51 08:56:52 13° 65° (ENE) 08:59:04 435.000
BRITE-PL 03 Mar 09:03:49 09:08:22 77° 284° (WNW) 09:12:37 437.365/2234.400
GOMX 1 03 Mar 09:05:49 09:10:11 73° 100° (E) 09:14:21 467.674
ANTELSAT 03 Mar 09:07:39 09:10:40 19° 68° (ENE) 09:13:47 437.575/2403.000
ISS 03 Mar 09:08:56 09:12:10 80° 326° (NW) 09:15:24 145.825
CUTE 1.7 + AOD 2 03 Mar 09:09:46 09:14:03 78° 103° (ESE) 09:18:18 437.475
O/OREOS (USA 219) 03 Mar 09:12:54 09:17:23 62° 109° (ESE) 09:21:57 437.305
GONETS M04 03 Mar 09:20:02 09:28:51 87° 80° (E) 09:37:40
UWE-3 03 Mar 09:20:57 09:23:31 16° 91° (E) 09:26:13 435.000/436.395/437.385
DELFI C3 03 Mar 09:21:20 09:24:29 22° 94° (E) 09:27:43 145.870
POLYITAN 1 03 Mar 09:22:19 09:24:43 15° 66° (ENE) 09:27:16 437.675
POPSAT HIP 1 03 Mar 09:22:34 09:24:56 15° 66° (ENE) 09:27:28 437.405
SO-50 03 Mar 09:28:16 09:32:17 25° 45° (NE) 09:36:22 436.795
DOVE 4 03 Mar 09:38:01 09:42:17 71° 284° (WNW) 09:46:24 437.250
CINEMA 3 03 Mar 09:41:45 09:45:55 64° 101° (E) 09:50:01 145.822/145.860
NANOSAT C BR1 03 Mar 09:44:17 09:47:46 25° 69° (ENE) 09:51:19 145.865
Oscar 11 03 Mar 09:48:06 09:52:22 58° 100° (E) 09:56:39 145.826/435.025
AAUSAT CUBESAT 2 03 Mar 09:51:36 09:55:44 58° 285° (WNW) 09:59:51 437.432
HO-68 03 Mar 09:51:46 09:58:52 62° 290° (WNW) 10:05:55 435.675
COMPASS 1 03 Mar 09:54:44 09:58:46 46° 287° (WNW) 10:02:48 437.405
CUBEBUG 2 03 Mar 09:58:32 10:02:36 54° 100° (E) 10:06:42 437.445
UNISAT 6 03 Mar 10:04:00 10:08:24 77° 76° (ENE) 10:12:45 437.425
DX 1 03 Mar 10:13:26 10:17:41 49° 100° (E) 10:21:54 434.975-435.025
QB50P1 03 Mar 10:16:27 10:20:40 58° 74° (ENE) 10:24:53 145.935-145.965
AISAT 03 Mar 10:19:57 10:23:31 24° 94° (E) 10:27:07 437.250
QB50P2 03 Mar 10:20:28 10:24:43 66° 75° (ENE) 10:28:59 145.880/145.840
BUGSAT 1 03 Mar 10:23:40 10:27:49 51° 74° (ENE) 10:32:00 437.445
SEEDS 03 Mar 10:23:49 10:26:55 19° 292° (WNW) 10:29:54 437.485
CUBEBUG 1 03 Mar 10:23:57 10:24:27 10° 87° (E) 10:25:15 437.445
50 SAT 03 Mar 10:25:12 10:28:26 24° 95° (E) 10:31:44 437.505
CANX-2 03 Mar 10:28:44 10:31:03 14° 294° (WNW) 10:33:11 2200.000
TIGRISAT 03 Mar 10:28:54 10:33:15 57° 260° (W) 10:37:31 435.000
VELOX 1 03 Mar 10:28:58 10:32:49 29° 96° (E) 10:36:42 145.980
HUMSAT D 03 Mar 10:34:03 10:38:02 47° 99° (E) 10:42:01 437.325/437.525
FUNcube-1 03 Mar 10:34:05 10:38:15 87° 283° (WNW) 10:42:25 145.935
DUCHIFAT 1 03 Mar 10:34:58 10:39:16 88° 256° (WSW) 10:43:34 145.980
ZACube-1 03 Mar 10:35:34 10:39:44 83° 285° (WNW) 10:43:54 437.345
UKube-1 03 Mar 10:42:09 10:46:31 82° 284° (WNW) 10:50:51 .
ANTELSAT 03 Mar 10:43:08 10:47:16 38° 262° (W) 10:51:19 437.575/2403.000
DANDE 03 Mar 10:46:30 10:48:34 20° 74° (ENE) 10:50:39 436.750
ISS 03 Mar 10:46:46 10:49:01 17° 342° (NNW) 10:51:14 145.825
ESTCUBE 1 03 Mar 10:47:03 10:50:36 23° 93° (E) 10:54:14 437.505/2401.250
GOMX 1 03 Mar 10:47:21 10:47:44 10° 298° (WNW) 10:47:53 467.674
O/OREOS (USA 219) 03 Mar 10:54:40 10:57:20 15° 308° (NW) 10:59:51 437.305
